When you browse on this site, cookies collect data to enhance your experience and personalize the content and advertising you see.
Visit our Privacy Policy to learn more. By continuing to use the site, you agree to this use of cookies and data.
EN

Hourly Weather Shumen

Today, 6 July, Monday

Time Temperature Precipitation Wind Pressure Humidity
00:00 +20°C° 0 mm 2 mps 727 mmHg 84%
01:00 +20°C° 0 mm 2 mps 727 mmHg 86%
02:00 +20°C° 0 mm 2 mps 727 mmHg 83%
03:00 +19°C° 0 mm 2 mps 726 mmHg 86%
04:00 +19°C° 0 mm 2 mps 726 mmHg 88%
05:00 +19°C° 0 mm 2 mps 726 mmHg 90%
06:00 +20°C° 0 mm 2 mps 726 mmHg 86%
07:00 +22°C° 0 mm 3 mps 726 mmHg 82%
08:00 +24°C° 0 mm 3 mps 726 mmHg 77%
09:00 +26°C° 0.6 mm 3 mps 726 mmHg 72%
10:00 +27°C° 0.6 mm 4 mps 726 mmHg 66%
11:00 +29°C° 0.6 mm 4 mps 726 mmHg 60%
12:00 +29°C° 0.1 mm 4 mps 726 mmHg 58%
13:00 +30°C° 0.1 mm 4 mps 725 mmHg 56%
14:00 +30°C° 0.1 mm 4 mps 725 mmHg 53%
15:00 +30°C° 0 mm 4 mps 725 mmHg 54%
16:00 +30°C° 0 mm 3 mps 724 mmHg 55%
17:00 +30°C° 0 mm 3 mps 724 mmHg 56%
18:00 +28°C° 0.1 mm 2 mps 724 mmHg 62%
19:00 +26°C° 0.1 mm 2 mps 723 mmHg 68%
20:00 +24°C° 0.1 mm 1 mps 723 mmHg 74%
21:00 +24°C° 0.2 mm 1 mps 723 mmHg 76%
22:00 +23°C° 0.2 mm 2 mps 723 mmHg 79%
23:00 +21°C° 0.2 mm 2 mps 723 mmHg 81%

Tomorrow, 7 July, Tuesday

Time Temperature Precipitation Wind Pressure Humidity
00:00 +21°C° 0 mm 2 mps 723 mmHg 83%
01:00 +20°C° 0 mm 2 mps 723 mmHg 85%
02:00 +21°C° 0 mm 1 mps 723 mmHg 87%
03:00 +21°C° 0 mm 1 mps 722 mmHg 88%
04:00 +20°C° 0 mm 1 mps 722 mmHg 90%
05:00 +20°C° 0 mm 1 mps 722 mmHg 91%
06:00 +21°C° 0 mm 2 mps 723 mmHg 86%
07:00 +23°C° 0 mm 2 mps 723 mmHg 80%
08:00 +25°C° 0 mm 3 mps 724 mmHg 75%
09:00 +26°C° 0.5 mm 3 mps 724 mmHg 70%
10:00 +28°C° 0.5 mm 4 mps 724 mmHg 65%
11:00 +29°C° 0.5 mm 4 mps 724 mmHg 59%
12:00 +28°C° 1.2 mm 5 mps 724 mmHg 62%
13:00 +28°C° 1.2 mm 6 mps 724 mmHg 64%
14:00 +27°C° 1.2 mm 6 mps 724 mmHg 67%
15:00 +27°C° 0.3 mm 6 mps 724 mmHg 66%
16:00 +27°C° 0.3 mm 6 mps 725 mmHg 65%
17:00 +26°C° 0.3 mm 6 mps 725 mmHg 64%
18:00 +23°C° 0.1 mm 6 mps 725 mmHg 69%
19:00 +21°C° 0.1 mm 5 mps 726 mmHg 73%
20:00 +19°C° 0.1 mm 5 mps 726 mmHg 77%
21:00 +17°C° 0 mm 5 mps 727 mmHg 79%
22:00 +17°C° 0 mm 4 mps 728 mmHg 81%
23:00 +15°C° 0 mm 4 mps 728 mmHg 84%

Day after tomorrow, 8 July, Wednesday

Time Temperature Precipitation Wind Pressure Humidity
00:00 +15°C° 0 mm 4 mps 729 mmHg 83%
01:00 +14°C° 0 mm 4 mps 729 mmHg 83%
02:00 +14°C° 0 mm 4 mps 729 mmHg 82%
03:00 +14°C° 0 mm 4 mps 730 mmHg 80%
04:00 +13°C° 0 mm 4 mps 730 mmHg 77%
05:00 +13°C° 0 mm 4 mps 730 mmHg 75%
06:00 +14°C° 0 mm 5 mps 731 mmHg 72%
07:00 +15°C° 0 mm 5 mps 731 mmHg 68%
08:00 +16°C° 0 mm 6 mps 732 mmHg 65%
09:00 +17°C° 0 mm 6 mps 732 mmHg 62%
10:00 +20°C° 0 mm 5 mps 732 mmHg 60%
11:00 +21°C° 0 mm 5 mps 732 mmHg 58%
12:00 +22°C° 0 mm 5 mps 732 mmHg 56%
13:00 +22°C° 0 mm 4 mps 732 mmHg 55%
14:00 +24°C° 0 mm 3 mps 732 mmHg 53%
15:00 +24°C° 0 mm 3 mps 732 mmHg 54%
16:00 +24°C° 0 mm 3 mps 732 mmHg 55%
17:00 +24°C° 0 mm 2 mps 732 mmHg 55%
18:00 +21°C° 0 mm 2 mps 732 mmHg 62%
19:00 +21°C° 0 mm 1 mps 732 mmHg 68%
20:00 +19°C° 0 mm 1 mps 732 mmHg 74%
21:00 +18°C° 0 mm 1 mps 732 mmHg 76%
22:00 +16°C° 0 mm 0 mps 732 mmHg 79%
23:00 +15°C° 0 mm 0 mps 732 mmHg 82%

9 July, Thursday

Time Temperature Precipitation Wind Pressure Humidity
00:00 +14°C° 0 mm 0 mps 732 mmHg 82%
01:00 +14°C° 0 mm 0 mps 732 mmHg 83%
02:00 +14°C° 0 mm 0 mps 732 mmHg 84%
03:00 +14°C° 0 mm 0 mps 732 mmHg 84%
04:00 +13°C° 0 mm 0 mps 732 mmHg 84%
05:00 +13°C° 0 mm 0 mps 732 mmHg 84%
06:00 +15°C° 0 mm 0 mps 733 mmHg 77%
07:00 +18°C° 0 mm 0 mps 733 mmHg 70%
08:00 +20°C° 0 mm 0 mps 734 mmHg 63%
09:00 +21°C° 0 mm 0 mps 734 mmHg 56%
10:00 +25°C° 0 mm 1 mps 734 mmHg 49%
11:00 +26°C° 0 mm 1 mps 734 mmHg 43%
12:00 +27°C° 0 mm 1 mps 734 mmHg 41%
13:00 +27°C° 0 mm 1 mps 733 mmHg 40%
14:00 +28°C° 0 mm 1 mps 733 mmHg 38%
15:00 +28°C° 0 mm 1 mps 733 mmHg 40%
16:00 +27°C° 0 mm 2 mps 733 mmHg 42%
17:00 +27°C° 0 mm 2 mps 733 mmHg 44%
18:00 +25°C° 0 mm 2 mps 733 mmHg 53%
19:00 +23°C° 0 mm 1 mps 733 mmHg 61%
20:00 +21°C° 0 mm 1 mps 733 mmHg 69%
21:00 +20°C° 0 mm 1 mps 733 mmHg 72%
22:00 +19°C° 0 mm 1 mps 733 mmHg 75%
23:00 +18°C° 0 mm 1 mps 733 mmHg 78%

10 July, Friday

Time Temperature Precipitation Wind Pressure Humidity
00:00 +18°C° 0 mm 1 mps 733 mmHg 79%
01:00 +18°C° 0 mm 1 mps 733 mmHg 80%
02:00 +15°C° 0 mm 0 mps 733 mmHg 81%
03:00 +15°C° 0 mm 0 mps 733 mmHg 81%
04:00 +15°C° 0 mm 0 mps 733 mmHg 81%
05:00 +15°C° 0 mm 0 mps 733 mmHg 82%
06:00 +19°C° 0 mm 1 mps 733 mmHg 76%
07:00 +21°C° 0 mm 1 mps 734 mmHg 70%
08:00 +23°C° 0 mm 2 mps 734 mmHg 64%
09:00 +24°C° 0 mm 2 mps 734 mmHg 59%
10:00 +26°C° 0 mm 3 mps 734 mmHg 55%
11:00 +27°C° 0 mm 4 mps 734 mmHg 50%
12:00 +27°C° 0 mm 4 mps 734 mmHg 50%
13:00 +28°C° 0 mm 4 mps 734 mmHg 50%
14:00 +28°C° 0 mm 5 mps 734 mmHg 49%
15:00 +27°C° 0.1 mm 5 mps 733 mmHg 53%
16:00 +27°C° 0.1 mm 4 mps 733 mmHg 56%
17:00 +26°C° 0.1 mm 4 mps 733 mmHg 60%
18:00 +23°C° 0 mm 4 mps 733 mmHg 66%
19:00 +22°C° 0 mm 3 mps 733 mmHg 72%
20:00 +20°C° 0 mm 2 mps 733 mmHg 78%
21:00 +19°C° 0 mm 2 mps 733 mmHg 82%
22:00 +19°C° 0 mm 1 mps 733 mmHg 85%
23:00 +18°C° 0 mm 1 mps 733 mmHg 89%

11 July, Saturday

Time Temperature Precipitation Wind Pressure Humidity
00:00 +18°C° 0 mm 1 mps 733 mmHg 89%
01:00 +18°C° 0 mm 1 mps 733 mmHg 89%
02:00 +16°C° 0 mm 1 mps 732 mmHg 90%
03:00 +16°C° 0 mm 1 mps 732 mmHg 90%
04:00 +16°C° 0 mm 1 mps 732 mmHg 90%
05:00 +16°C° 0 mm 1 mps 732 mmHg 91%
06:00 +19°C° 0 mm 1 mps 732 mmHg 85%
07:00 +20°C° 0 mm 2 mps 732 mmHg 79%
08:00 +23°C° 0 mm 2 mps 732 mmHg 72%
09:00 +25°C° 0 mm 3 mps 732 mmHg 66%
10:00 +26°C° 0 mm 3 mps 732 mmHg 59%
11:00 +27°C° 0 mm 4 mps 732 mmHg 53%
12:00 +28°C° 0 mm 4 mps 732 mmHg 53%
13:00 +28°C° 0 mm 4 mps 732 mmHg 53%
14:00 +28°C° 0 mm 4 mps 732 mmHg 53%
15:00 +28°C° 0 mm 4 mps 731 mmHg 54%
16:00 +27°C° 0 mm 4 mps 731 mmHg 55%
17:00 +27°C° 0 mm 4 mps 731 mmHg 56%
18:00 +25°C° 0 mm 3 mps 731 mmHg 63%
19:00 +23°C° 0 mm 2 mps 730 mmHg 70%
20:00 +20°C° 0 mm 2 mps 730 mmHg 77%
21:00 +20°C° 0 mm 1 mps 730 mmHg 82%
22:00 +19°C° 0 mm 1 mps 730 mmHg 86%
23:00 +17°C° 0 mm 0 mps 730 mmHg 90%
Show more